timestamp,wind_dir_avg,wind_spd_avg,wind_spd_max_dir,wind_spd_gust,battery_voltage,lat,long
2023-06-16 00:04:00+00:00,164.0,1.47,166.0,1.55,12.49,47.59359,-54.27349
2023-06-16 00:14:01+00:00,155.0,1.05,161.0,1.14,12.41,47.59359,-54.27349
2023-06-16 00:24:01+00:00,180.0,0.96,182.0,1.0,12.41,47.59359,-54.27349
2023-06-16 00:34:01+00:00,83.0,1.57,87.0,2.09,12.41,47.59359,-54.27349
2023-06-16 00:44:01+00:00,69.0,1.84,69.0,2.27,12.41,47.59359,-54.27349
2023-06-16 00:54:01+00:00,38.0,1.18,36.0,1.73,12.41,47.59359,-54.27349
2023-06-16 01:04:01+00:00,45.0,1.45,45.0,1.72,12.41,47.59359,-54.27349
2023-06-16 01:14:00+00:00,32.0,0.96,48.0,1.22,12.41,47.59359,-54.27349
2023-06-16 01:24:00+00:00,52.0,1.48,57.0,2.3,12.41,47.59359,-54.27349
2023-06-16 01:34:00+00:00,60.0,1.74,59.0,2.05,12.41,47.59359,-54.27349
2023-06-16 01:44:00+00:00,54.0,1.82,59.0,2.16,12.41,47.59359,-54.27349
2023-06-16 01:54:00+00:00,38.0,1.76,33.0,1.85,12.41,47.59359,-54.27349
2023-06-16 02:04:00+00:00,49.0,2.52,51.0,2.64,12.41,47.59359,-54.27349
2023-06-16 02:14:00+00:00,36.0,2.04,48.0,2.56,12.41,47.59359,-54.27349
2023-06-16 02:24:00+00:00,82.0,1.52,98.0,2.06,12.41,47.59359,-54.27349
2023-06-16 02:34:00+00:00,103.0,1.06,125.0,3.04,12.41,47.59359,-54.27349
2023-06-16 02:44:00+00:00,169.0,2.44,168.0,2.67,12.41,47.59359,-54.27349
2023-06-16 02:54:00+00:00,164.0,2.6,161.0,2.85,12.41,47.59359,-54.27349
2023-06-16 03:04:00+00:00,172.0,1.69,169.0,2.3,12.41,47.59359,-54.27349
2023-06-16 03:14:00+00:00,180.0,2.37,178.0,2.66,12.33,47.59359,-54.27349
2023-06-16 03:24:00+00:00,165.0,2.85,163.0,3.0,12.33,47.59359,-54.27349
2023-06-16 03:34:00+00:00,133.0,3.2,134.0,3.81,12.33,47.59359,-54.27349
2023-06-16 03:44:00+00:00,132.0,3.05,136.0,3.66,12.33,47.59359,-54.27349
2023-06-16 03:54:00+00:00,120.0,3.0,122.0,3.31,12.33,47.59359,-54.27349
2023-06-16 04:04:00+00:00,106.0,2.0,137.0,3.18,12.33,47.59359,-54.27349
2023-06-16 04:14:00+00:00,100.0,3.95,83.0,5.83,12.33,47.59359,-54.27349
2023-06-16 04:24:00+00:00,96.0,3.14,89.0,6.08,12.33,47.59359,-54.27349
2023-06-16 04:34:00+00:00,102.0,3.31,101.0,5.31,12.33,47.59359,-54.27349
2023-06-16 04:44:00+00:00,101.0,2.74,124.0,4.1,12.33,47.59359,-54.27349
2023-06-16 04:54:00+00:00,98.0,1.7,104.0,2.49,12.33,47.59359,-54.27349
2023-06-16 05:04:00+00:00,87.0,2.2,76.0,2.91,12.33,47.59359,-54.27349
2023-06-16 05:14:00+00:00,77.0,2.03,83.0,2.43,12.33,47.59359,-54.27349
2023-06-16 05:24:00+00:00,75.0,2.61,65.0,2.96,12.33,47.59359,-54.27349
2023-06-16 05:34:00+00:00,66.0,1.95,69.0,2.65,12.33,47.59359,-54.27349
2023-06-16 05:44:00+00:00,105.0,2.4,121.0,3.6,12.33,47.59359,-54.27349
2023-06-16 05:54:00+00:00,91.0,1.95,78.0,2.9,12.33,47.59359,-54.27349
2023-06-16 06:04:00+00:00,79.0,2.89,104.0,3.45,12.33,47.59359,-54.27349
2023-06-16 06:14:00+00:00,101.0,2.71,98.0,4.12,12.25,47.59359,-54.27349
2023-06-16 06:24:00+00:00,85.0,2.23,49.0,3.11,12.25,47.59359,-54.27349
2023-06-16 06:34:00+00:00,94.0,2.66,96.0,3.7,12.25,47.59359,-54.27349
2023-06-16 06:44:00+00:00,93.0,2.42,104.0,3.54,12.25,47.59359,-54.27349
2023-06-16 06:54:00+00:00,80.0,2.09,77.0,2.78,12.25,47.59359,-54.27349
2023-06-16 07:04:00+00:00,70.0,2.94,70.0,3.56,12.25,47.59359,-54.27349
2023-06-16 07:14:00+00:00,84.0,2.94,108.0,4.16,12.25,47.59359,-54.27349
2023-06-16 07:24:00+00:00,75.0,3.11,74.0,3.97,12.25,47.59359,-54.27349
2023-06-16 07:34:00+00:00,77.0,3.21,76.0,4.01,12.25,47.59359,-54.27349
2023-06-16 07:44:00+00:00,75.0,3.83,71.0,5.12,12.25,47.59359,-54.27349
2023-06-16 07:54:00+00:00,77.0,3.41,92.0,4.35,12.25,47.59359,-54.27349
2023-06-16 08:04:00+00:00,78.0,3.11,67.0,4.17,12.25,47.59359,-54.27349
2023-06-16 08:14:00+00:00,68.0,3.28,63.0,4.02,12.17,47.59359,-54.27349
2023-06-16 08:24:00+00:00,92.0,3.41,119.0,5.29,12.17,47.59359,-54.27349
2023-06-16 08:34:00+00:00,76.0,2.83,78.0,3.64,12.17,47.59359,-54.27349
2023-06-16 08:44:00+00:00,83.0,3.56,97.0,5.4,12.17,47.59359,-54.27349
2023-06-16 08:54:00+00:00,75.0,3.57,69.0,4.95,12.17,47.59359,-54.27349
2023-06-16 09:04:00+00:00,69.0,3.8,64.0,4.89,12.17,47.59359,-54.27349
2023-06-16 09:14:00+00:00,70.0,5.69,74.0,7.06,12.17,47.59359,-54.27349
2023-06-16 09:24:00+00:00,75.0,4.46,94.0,7.44,12.17,47.59359,-54.27349
2023-06-16 09:34:00+00:00,66.0,4.31,67.0,4.98,12.17,47.59359,-54.27349
2023-06-16 09:44:00+00:00,69.0,3.71,62.0,4.38,12.17,47.59359,-54.27349
2023-06-16 09:54:00+00:00,70.0,4.56,71.0,5.49,12.17,47.59359,-54.27349
2023-06-16 10:04:00+00:00,74.0,4.09,73.0,5.97,12.17,47.59359,-54.27349
2023-06-16 10:14:00+00:00,96.0,2.72,93.0,5.24,12.25,47.59359,-54.27349
2023-06-16 10:24:00+00:00,71.0,4.0,71.0,5.15,12.25,47.59359,-54.27349
2023-06-16 10:34:00+00:00,65.0,3.74,69.0,4.3,12.25,47.59359,-54.27349
2023-06-16 10:44:00+00:00,70.0,3.55,52.0,5.13,12.25,47.59359,-54.27349
2023-06-16 10:54:00+00:00,58.0,3.89,56.0,4.45,12.25,47.59359,-54.27349
2023-06-16 11:04:00+00:00,57.0,5.55,66.0,7.94,12.25,47.59359,-54.27349
2023-06-16 11:14:00+00:00,53.0,5.78,51.0,6.57,12.41,47.59359,-54.27349
2023-06-16 11:24:00+00:00,59.0,4.91,54.0,5.5,12.41,47.59359,-54.27349
2023-06-16 11:34:00+00:00,52.0,4.96,54.0,5.36,12.41,47.59359,-54.27349
2023-06-16 11:44:00+00:00,62.0,5.06,58.0,5.93,12.41,47.59359,-54.27349
2023-06-16 11:54:00+00:00,63.0,4.11,56.0,4.86,12.41,47.59359,-54.27349
2023-06-16 12:04:00+00:00,51.0,5.25,51.0,5.62,12.41,47.59359,-54.27349
2023-06-16 12:14:00+00:00,36.0,4.5,35.0,4.85,12.65,47.59359,-54.27349
2023-06-16 12:24:00+00:00,35.0,4.74,37.0,5.37,12.65,47.59359,-54.27349
2023-06-16 12:34:00+00:00,33.0,5.68,35.0,6.04,12.65,47.59359,-54.27349
2023-06-16 12:44:00+00:00,38.0,5.15,42.0,5.52,12.65,47.59359,-54.27349
2023-06-16 12:54:00+00:00,43.0,5.77,40.0,6.19,12.65,47.59359,-54.27349
2023-06-16 13:04:00+00:00,46.0,6.04,46.0,6.83,12.65,47.59359,-54.27349
2023-06-16 13:14:00+00:00,49.0,5.65,51.0,6.3,13.37,47.59359,-54.27349
2023-06-16 13:24:00+00:00,45.0,5.51,50.0,5.79,13.37,47.59359,-54.27349
2023-06-16 13:34:00+00:00,39.0,5.28,47.0,5.8,13.37,47.59359,-54.27349
2023-06-16 13:44:00+00:00,52.0,5.58,51.0,6.01,13.37,47.59359,-54.27349
2023-06-16 13:54:00+00:00,44.0,5.02,44.0,5.54,13.37,47.59359,-54.27349
2023-06-16 14:04:00+00:00,35.0,5.37,36.0,5.76,13.37,47.59359,-54.27349
2023-06-16 14:14:00+00:00,38.0,5.14,38.0,5.56,13.44,47.59359,-54.27349
2023-06-16 14:24:00+00:00,50.0,6.55,49.0,7.25,13.44,47.59359,-54.27349
2023-06-16 14:34:00+00:00,30.0,5.62,21.0,7.22,13.44,47.59359,-54.27349
2023-06-16 14:44:00+00:00,30.0,5.81,42.0,6.85,13.44,47.59359,-54.27349
2023-06-16 14:54:00+00:00,16.0,5.4,30.0,6.39,13.44,47.59359,-54.27349
2023-06-16 15:04:00+00:00,24.0,6.49,30.0,7.41,13.44,47.59359,-54.27349
2023-06-16 15:14:00+00:00,31.0,6.53,34.0,7.51,13.6,47.59359,-54.27349
2023-06-16 15:24:00+00:00,37.0,6.86,39.0,7.52,13.6,47.59359,-54.27349
2023-06-16 15:34:00+00:00,40.0,7.18,39.0,7.88,13.6,47.59359,-54.27349
2023-06-16 15:44:00+00:00,34.0,6.34,37.0,7.06,13.6,47.59359,-54.27349
2023-06-16 15:54:00+00:00,35.0,6.44,36.0,7.21,13.6,47.59359,-54.27349
2023-06-16 16:04:00+00:00,34.0,7.31,34.0,7.97,13.6,47.59359,-54.27349
2023-06-16 16:14:01+00:00,36.0,7.45,39.0,8.2,13.6,47.59359,-54.27349
2023-06-16 16:24:01+00:00,40.0,8.31,37.0,9.21,13.6,47.59359,-54.27349
2023-06-16 16:34:01+00:00,37.0,7.67,40.0,8.63,13.6,47.59359,-54.27349
2023-06-16 16:44:01+00:00,37.0,7.13,36.0,7.86,13.6,47.59359,-54.27349
2023-06-16 16:54:01+00:00,40.0,7.13,39.0,7.85,13.6,47.59359,-54.27349
2023-06-16 17:04:01+00:00,42.0,6.91,44.0,7.7,13.6,47.59359,-54.27349
2023-06-16 17:14:01+00:00,39.0,6.67,38.0,7.7,13.68,47.59359,-54.27349
2023-06-16 17:24:01+00:00,38.0,7.09,36.0,7.95,13.68,47.59359,-54.27349
2023-06-16 17:34:01+00:00,41.0,7.35,37.0,8.39,13.68,47.59359,-54.27349
2023-06-16 17:44:01+00:00,39.0,6.92,41.0,7.93,13.68,47.59359,-54.27349
2023-06-16 17:54:01+00:00,40.0,6.62,50.0,7.77,13.68,47.59359,-54.27349
2023-06-16 18:04:01+00:00,35.0,6.64,35.0,7.4,13.68,47.59359,-54.27349
2023-06-16 18:14:01+00:00,30.0,6.66,30.0,7.43,13.68,47.59359,-54.27349
2023-06-16 18:24:01+00:00,26.0,6.27,24.0,7.17,13.68,47.59359,-54.27349
2023-06-16 18:34:01+00:00,29.0,6.76,29.0,7.53,13.68,47.59359,-54.27349
2023-06-16 18:44:01+00:00,30.0,7.12,31.0,7.65,13.68,47.59359,-54.27349
2023-06-16 18:54:01+00:00,31.0,6.96,34.0,7.44,13.68,47.59359,-54.27349
2023-06-16 19:04:01+00:00,35.0,6.75,35.0,7.71,13.68,47.59359,-54.27349
2023-06-16 19:14:01+00:00,32.0,6.04,33.0,6.78,13.68,47.59359,-54.27349
2023-06-16 19:24:01+00:00,37.0,5.69,35.0,6.31,13.68,47.59359,-54.27349
2023-06-16 19:34:01+00:00,35.0,5.97,35.0,6.5,13.68,47.59359,-54.27349
2023-06-16 19:44:01+00:00,37.0,6.33,38.0,6.92,13.68,47.59359,-54.27349
2023-06-16 19:54:01+00:00,34.0,5.96,30.0,6.46,13.68,47.59359,-54.27349
2023-06-16 20:04:01+00:00,39.0,6.38,40.0,7.14,13.68,47.59359,-54.27349
2023-06-16 20:14:00+00:00,30.0,5.94,31.0,6.76,13.68,47.59359,-54.27349
2023-06-16 20:24:00+00:00,28.0,6.12,30.0,6.81,13.68,47.59359,-54.27349
2023-06-16 20:34:00+00:00,29.0,5.65,31.0,6.21,13.68,47.59359,-54.27349
2023-06-16 20:44:00+00:00,34.0,5.83,35.0,6.46,13.68,47.59359,-54.27349
2023-06-16 20:54:00+00:00,36.0,6.18,46.0,6.97,13.68,47.59359,-54.27349
2023-06-16 21:04:00+00:00,33.0,5.37,32.0,6.05,13.68,47.59359,-54.27349
2023-06-16 21:14:00+00:00,35.0,4.99,36.0,5.37,13.44,47.59359,-54.27349
2023-06-16 21:24:00+00:00,37.0,5.7,37.0,6.21,13.44,47.59359,-54.27349
2023-06-16 21:34:00+00:00,48.0,4.37,49.0,4.94,13.44,47.59359,-54.27349
2023-06-16 21:44:00+00:00,32.0,5.01,31.0,5.37,13.44,47.59359,-54.27349
2023-06-16 21:54:00+00:00,37.0,5.32,36.0,5.8,13.44,47.59359,-54.27349
2023-06-16 22:04:00+00:00,51.0,6.12,52.0,6.65,13.44,47.59359,-54.27349
2023-06-16 22:14:00+00:00,46.0,5.55,42.0,6.38,12.89,47.59359,-54.27349
2023-06-16 22:24:00+00:00,38.0,5.48,37.0,6.02,12.89,47.59359,-54.27349
2023-06-16 22:34:00+00:00,32.0,5.61,30.0,5.99,12.89,47.59359,-54.27349
2023-06-16 22:44:00+00:00,33.0,6.41,32.0,7.15,12.89,47.59359,-54.27349
2023-06-16 22:54:00+00:00,32.0,6.42,34.0,7.03,12.89,47.59359,-54.27349
2023-06-16 23:04:00+00:00,28.0,5.77,26.0,6.38,12.89,47.59359,-54.27349
2023-06-16 23:14:00+00:00,32.0,5.98,35.0,6.97,12.73,47.59359,-54.27349
2023-06-16 23:24:00+00:00,31.0,6.24,30.0,6.79,12.73,47.59359,-54.27349
2023-06-16 23:34:00+00:00,33.0,6.25,35.0,6.92,12.73,47.59359,-54.27349
2023-06-16 23:44:00+00:00,33.0,6.2,34.0,6.93,12.73,47.59359,-54.27349
2023-06-16 23:54:00+00:00,33.0,6.26,32.0,6.7,12.73,47.59359,-54.27349
